FW6259 Weather Reports


time (UTC)temp
C
wind
direction
speed
KPH
gust
KPH
rain 1hr
cm
rain 24hr
cm
rain mn
cm
humidity
%
barometer
mb
20260503223100 4 23 0.0 3.2 0.05 0.05 0.05 81 1024.6
20260503221502 4 292 0.0 3.2 0.03 0.03 0.03 82 1024.7
20260503220052 5 188 1.6 3.2 0.03 0.03 0.03 80 1024.7
20260503214507 5 123 0.0 6.4 0.00 0.00 0.00 76 1024.8
20260503213056 5 253 1.6 6.4 0.00 0.00 0.00 73 1024.8
20260503211551 5 160 3.2 4.8 0.00 0.00 0.00 72 1024.8
20260503210047 6 188 4.8 8.0 0.00 0.00 0.00 66 1024.6
20260503204600 6 206 1.6 9.7 0.00 0.00 0.00 64 1024.7
20260503203050 6 105 4.8 9.7 0.00 0.00 0.00 62 1024.5
20260503201553 6 130 0.0 6.4 0.00 0.00 0.00 62 1024.5
20260503200044 6 140 1.6 8.0 0.00 0.00 0.00 62 1024.5
20260503194619 6 348 3.2 8.0 0.00 0.00 0.00 60 1024.4
20260503193051 6 117 3.2 8.0 0.00 0.00 0.00 59 1024.2
20260503191551 6 49 3.2 8.0 0.00 0.00 0.00 58 1024.2
20260503184556 6 162 3.2 9.7 0.00 0.00 0.00 59 1024.2
20260503183050 6 63 6.4 16.1 0.00 0.00 0.00 60 1024.1
20260503181607 6 68 6.4 12.9 0.00 0.00 0.00 59 1024.2
20260503180053 6 58 4.8 9.7 0.00 0.00 0.00 60 1024.0
20260503174504 6 21 3.2 11.3 0.00 0.00 0.00 62 1023.9
20260503173054 5 70 3.2 12.9 0.00 0.00 0.00 65 1024.0
20260503171551 5 117 1.6 6.4 0.00 0.00 0.00 65 1024.1
20260503170113 5 105 1.6 6.4 0.00 0.00 0.00 66 1024.0
20260503130147 3 249 4.8 11.3 0.00 0.00 0.00 65 1023.9
20260503081504 4 162 1.6 17.7 0.00 0.03 0.00 61 1023.2
20260503071603 5 181 9.7 32.2 0.00 0.03 0.03 59 1022.7
20260503054541 5 191 8.0 19.3 0.00 0.03 0.03 60 1022.1
20260503053058 5 163 14.5 25.7 0.00 0.03 0.03 59 1022.0
20260503051651 5 240 8.0 24.1 0.00 0.03 0.03 58 1021.9
20260503050147 6 210 12.9 25.7 0.00 0.03 0.03 56 1021.8
20260503044615 6 195 12.9 24.1 0.00 0.03 0.03 54 1021.5
20260503043056 7 156 11.3 29.0 0.00 0.03 0.03 53 1021.4
20260503041608 7 199 14.5 32.2 0.00 0.03 0.03 52 1020.9
20260503040059 7 169 17.7 35.4 0.00 0.03 0.03 51 1020.9
20260503034554 7 121 14.5 45.1 0.00 0.03 0.03 51 1020.7
20260503033104 7 228 17.7 30.6 0.00 0.03 0.03 49 1020.6
20260503031545 8 163 14.5 32.2 0.00 0.03 0.03 48 1020.5
20260503030105 8 193 22.5 38.6 0.00 0.03 0.03 47 1020.6
20260503024601 9 166 17.7 41.8 0.00 0.03 0.03 47 1020.4
20260503023051 9 235 17.7 38.6 0.00 0.03 0.03 42 1020.1
20260503021551 9 205 12.9 38.6 0.00 0.03 0.03 44 1020.1
20260503014551 9 143 17.7 40.2 0.00 0.03 0.03 42 1020.1
20260503013043 9 198 16.1 45.1 0.00 0.03 0.03 42 1019.7
20260503011606 10 181 11.3 43.5 0.00 0.03 0.03 43 1019.6
20260503010048 8 231 19.3 37.0 0.00 0.03 0.03 43 1019.5
20260503004550 8 148 19.3 43.5 0.00 0.03 0.03 45 1019.4
20260503003102 8 136 17.7 38.6 0.00 0.03 0.03 43 1019.3
20260503001558 8 145 16.1 32.2 0.00 0.03 0.03 44 1019.2
20260503000048 10 124 14.5 38.6 0.00 0.03 0.03 43 1019.0
20260502234558 10 163 14.5 35.4 0.00 0.03 0.03 43 1019.1
20260502233048 10 271 11.3 35.4 0.00 0.03 0.03 42 1019.0
20260502231501 10 191 19.3 33.8 0.00 0.03 0.03 41 1018.8
20260502230052 10 152 12.9 29.0 0.00 0.03 0.03 42 1018.8
20260502224554 10 180 20.9 33.8 0.00 0.03 0.03 42 1018.7